| time (UTC) | temp F | wind direction | speed MPH | gust MPH | rain 1hr in | rain 24hr in | rain mn in | humidity % | barometer mb |
| 20260509140222 | 73 | 132 | 0.0 | 2.0 | 0.00 | 0.00 | 0.01 | 91 | 1012.2 |
| 20260509135719 | 73 | 149 | 0.0 | 1.0 | 0.00 | 0.00 | 0.01 | 91 | 1012.1 |
| 20260509135219 | 73 | 9 | 0.0 | 1.0 | 0.00 | 0.00 | 0.01 | 91 | 1012.1 |
| 20260509134719 | 73 | 9 | 1.0 | 4.0 | 0.00 | 0.00 | 0.01 | 91 | 1011.6 |
| 20260509134219 | 73 | 9 | 1.0 | 4.0 | 0.00 | 0.00 | 0.01 | 91 | 1011.5 |
| 20260509133717 | 73 | 11 | 1.0 | 5.0 | 0.00 | 0.00 | 0.01 | 91 | 1011.4 |
| 20260509133217 | 73 | 11 | 1.0 | 5.0 | 0.00 | 0.00 | 0.01 | 91 | 1011.4 |
| 20260509132718 | 73 | 0 | 1.0 | 4.0 | 0.00 | 0.00 | 0.01 | 91 | 1011.5 |
| 20260509132217 | 73 | 350 | 1.0 | 5.0 | 0.00 | 0.00 | 0.01 | 91 | 1011.3 |
| 20260509131718 | 73 | 37 | 0.0 | 5.0 | 0.00 | 0.00 | 0.01 | 91 | 1011.4 |
| 20260509131217 | 73 | 134 | 0.0 | 1.0 | 0.00 | 0.00 | 0.01 | 92 | 1011.7 |
| 20260509130718 | 73 | 134 | 1.0 | 5.0 | 0.00 | 0.00 | 0.01 | 91 | 1012.0 |
| 20260509130218 | 73 | 61 | 1.0 | 5.0 | 0.00 | 0.00 | 0.01 | 91 | 1011.8 |
| 20260509125714 | 73 | 107 | 2.0 | 0.0 | 0.00 | 0.00 | 0.01 | 91 | 1011.8 |
| 20260509125209 | 73 | 88 | 2.0 | 7.0 | 0.01 | 0.01 | 0.01 | 91 | 1011.6 |
| 20260509125205 | 73 | 106 | 2.0 | 5.0 | 0.01 | 0.01 | 0.01 | 91 | 1012.0 |
| 20260509124205 | 72 | 88 | 1.0 | 7.0 | 0.01 | 0.01 | 0.01 | 91 | 1011.8 |
| 20260509123706 | 72 | 45 | 3.0 | 7.0 | 0.01 | 0.01 | 0.01 | 91 | 1012.2 |
| 20260509123702 | 72 | 45 | 2.0 | 7.0 | 0.01 | 0.01 | 0.01 | 91 | 1012.1 |
| 20260509123304 | 72 | 12 | 3.0 | 8.0 | 0.01 | 0.01 | 0.01 | 91 | 1012.3 |
| 20260509122158 | 72 | 343 | 5.0 | 10.0 | 0.01 | 0.01 | 0.01 | 91 | 1012.3 |
| 20260509121657 | 72 | 45 | 5.0 | 10.0 | 0.01 | 0.01 | 0.01 | 91 | 1012.2 |
| 20260509121156 | 72 | 47 | 3.0 | 8.0 | 0.01 | 0.01 | 0.01 | 91 | 1012.2 |
| 20260509120657 | 72 | 28 | 3.0 | 6.0 | 0.00 | 0.00 | 0.00 | 91 | 1012.0 |
| 20260509120653 | 72 | 32 | 2.0 | 6.0 | 0.00 | 0.00 | 0.00 | 91 | 1011.8 |
| 20260509115652 | 72 | 28 | 2.0 | 6.0 | 0.00 | 0.00 | 0.00 | 91 | 1011.7 |
| 20260509115157 | 72 | 30 | 0.0 | 2.0 | 0.00 | 0.00 | 0.00 | 91 | 1011.4 |
| 20260509115153 | 72 | 32 | 1.0 | 6.0 | 0.00 | 0.00 | 0.00 | 91 | 1011.6 |
| 20260509114150 | 73 | 54 | 0.0 | 2.0 | 0.00 | 0.00 | 0.00 | 91 | 1011.3 |
| 20260509113648 | 73 | 54 | 0.0 | 1.0 | 0.00 | 0.00 | 0.00 | 91 | 1011.2 |
| 20260509113148 | 73 | 54 | 0.0 | 1.0 | 0.00 | 0.00 | 0.00 | 91 | 1011.1 |
| 20260509112649 | 73 | 54 | 0.0 | 4.0 | 0.00 | 0.00 | 0.00 | 91 | 1011.1 |
| 20260509112148 | 73 | 64 | 1.0 | 4.0 | 0.00 | 0.00 | 0.00 | 90 | 1011.1 |
| 20260509112144 | 73 | 54 | 1.0 | 4.0 | 0.00 | 0.00 | 0.00 | 91 | 1011.0 |
| 20260509111145 | 73 | 87 | 1.0 | 5.0 | 0.00 | 0.00 | 0.00 | 90 | 1011.1 |
| 20260509111141 | 73 | 53 | 1.0 | 5.0 | 0.00 | 0.00 | 0.00 | 90 | 1011.0 |
| 20260509110140 | 73 | 17 | 1.0 | 4.0 | 0.00 | 0.00 | 0.00 | 90 | 1010.9 |
| 20260509105641 | 73 | 55 | 1.0 | 4.0 | 0.00 | 0.00 | 0.00 | 90 | 1010.9 |
| 20260509105143 | 73 | 53 | 2.0 | 5.0 | 0.00 | 0.00 | 0.00 | 90 | 1011.0 |
| 20260509105139 | 73 | 53 | 1.0 | 5.0 | 0.00 | 0.00 | 0.00 | 90 | 1011.0 |
| 20260509104136 | 73 | 26 | 1.0 | 4.0 | 0.00 | 0.00 | 0.00 | 90 | 1011.0 |
| 20260509103633 | 73 | 29 | 0.0 | 3.0 | 0.00 | 0.00 | 0.00 | 91 | 1011.1 |
| 20260509103132 | 73 | 52 | 0.0 | 2.0 | 0.00 | 0.00 | 0.00 | 91 | 1011.2 |
| 20260509103128 | 73 | 52 | 0.0 | 2.0 | 0.00 | 0.00 | 0.00 | 91 | 1011.2 |
| 20260509102127 | 73 | 52 | 0.0 | 2.0 | 0.00 | 0.00 | 0.00 | 91 | 1011.1 |
| 20260509101626 | 72 | 52 | 0.0 | 2.0 | 0.00 | 0.00 | 0.00 | 91 | 1011.1 |
| 20260509101123 | 72 | 60 | 0.0 | 1.0 | 0.00 | 0.00 | 0.00 | 91 | 1010.9 |
| 20260509100622 | 72 | 60 | 0.0 | 1.0 | 0.00 | 0.00 | 0.00 | 91 | 1010.9 |
| 20260509100123 | 72 | 60 | 0.0 | 4.0 | 0.00 | 0.00 | 0.00 | 91 | 1010.8 |
| 20260509100119 | 72 | 60 | 0.0 | 4.0 | 0.00 | 0.00 | 0.00 | 91 | 1010.6 |
| 20260509095116 | 72 | 60 | 1.0 | 4.0 | 0.00 | 0.00 | 0.00 | 91 | 1010.5 |
| 20260509094617 | 72 | 60 | 1.0 | 4.0 | 0.00 | 0.00 | 0.00 | 91 | 1010.2 |
| 20260509094116 | 72 | 29 | 1.0 | 6.0 | 0.00 | 0.00 | 0.00 | 90 | 1010.3 |
| 20260509093616 | 72 | 340 | 1.0 | 6.0 | 0.00 | 0.00 | 0.00 | 90 | 1010.2 |
| 20260509093117 | 72 | 16 | 1.0 | 4.0 | 0.00 | 0.00 | 0.00 | 90 | 1010.2 |
| 20260509092617 | 72 | 20 | 2.0 | 5.0 | 0.00 | 0.00 | 0.00 | 90 | 1010.1 |
| 20260509092117 | 72 | 19 | 1.0 | 5.0 | 0.00 | 0.00 | 0.00 | 90 | 1010.0 |
| 20260509091617 | 72 | 45 | 1.0 | 5.0 | 0.00 | 0.00 | 0.00 | 90 | 1009.8 |
| 20260509091116 | 72 | 77 | 1.0 | 5.0 | 0.00 | 0.00 | 0.00 | 90 | 1009.7 |
| 20260509090616 | 72 | 24 | 1.0 | 2.0 | 0.00 | 0.00 | 0.00 | 90 | 1009.8 |
| 20260509090115 | 72 | 24 | 1.0 | 2.0 | 0.00 | 0.00 | 0.00 | 90 | 1010.0 |
| 20260509085614 | 72 | 24 | 1.0 | 2.0 | 0.00 | 0.00 | 0.00 | 90 | 1010.2 |
| 20260509085114 | 72 | 41 | 1.0 | 4.0 | 0.00 | 0.00 | 0.00 | 90 | 1010.0 |
| 20260509084619 | 72 | 30 | 1.0 | 4.0 | 0.00 | 0.00 | 0.00 | 90 | 1009.9 |
| 20260509084614 | 72 | 53 | 1.0 | 4.0 | 0.00 | 0.00 | 0.00 | 90 | 1009.9 |
| 20260509083615 | 72 | 14 | 1.0 | 4.0 | 0.00 | 0.00 | 0.00 | 90 | 1009.9 |
| 20260509083114 | 72 | 116 | 0.0 | 2.0 | 0.00 | 0.00 | 0.00 | 90 | 1010.1 |
| 20260509082615 | 72 | 116 | 0.0 | 1.0 | 0.00 | 0.00 | 0.00 | 90 | 1010.2 |
| 20260509082114 | 72 | 116 | 0.0 | 1.0 | 0.00 | 0.00 | 0.00 | 90 | 1010.1 |
| 20260509081614 | 72 | 117 | 0.0 | 2.0 | 0.00 | 0.00 | 0.00 | 90 | 1010.2 |
| 20260509081115 | 72 | 116 | 0.0 | 2.0 | 0.00 | 0.00 | 0.00 | 90 | 1010.3 |
| 20260509080614 | 72 | 165 | 1.0 | 5.0 | 0.00 | 0.00 | 0.00 | 90 | 1010.4 |
| 20260509080119 | 72 | 165 | 1.0 | 5.0 | 0.00 | 0.00 | 0.00 | 90 | 1010.5 |
| 20260509080115 | 72 | 148 | 1.0 | 5.0 | 0.00 | 0.00 | 0.00 | 90 | 1010.4 |
| 20260509075119 | 72 | 178 | 2.0 | 6.0 | 0.00 | 0.00 | 0.00 | 90 | 1010.4 |
| 20260509075115 | 72 | 150 | 1.0 | 6.0 | 0.00 | 0.00 | 0.00 | 90 | 1010.4 |
| 20260509074114 | 72 | 135 | 1.0 | 5.0 | 0.00 | 0.00 | 0.00 | 89 | 1010.4 |
| 20260509073615 | 72 | 168 | 2.0 | 5.0 | 0.00 | 0.00 | 0.00 | 89 | 1010.4 |
| 20260509073114 | 72 | 122 | 2.0 | 6.0 | 0.00 | 0.00 | 0.00 | 89 | 1010.2 |
| 20260509072615 | 73 | 101 | 2.0 | 7.0 | 0.00 | 0.00 | 0.00 | 89 | 1010.2 |
| 20260509072115 | 73 | 133 | 2.0 | 7.0 | 0.00 | 0.00 | 0.00 | 89 | 1010.3 |
| 20260509071619 | 73 | 127 | 2.0 | 5.0 | 0.00 | 0.00 | 0.00 | 89 | 1010.4 |
| 20260509071614 | 73 | 111 | 1.0 | 5.0 | 0.00 | 0.00 | 0.00 | 89 | 1010.5 |
| 20260509070615 | 73 | 146 | 2.0 | 7.0 | 0.00 | 0.00 | 0.00 | 89 | 1010.3 |
| 20260509070118 | 73 | 149 | 1.0 | 4.0 | 0.00 | 0.00 | 0.00 | 89 | 1010.3 |
| 20260509070114 | 73 | 162 | 1.0 | 7.0 | 0.00 | 0.00 | 0.00 | 89 | 1010.3 |
| 20260509065114 | 73 | 124 | 1.0 | 4.0 | 0.00 | 0.00 | 0.00 | 89 | 1010.6 |
| 20260509064615 | 73 | 127 | 1.0 | 4.0 | 0.00 | 0.00 | 0.00 | 89 | 1010.8 |
| 20260509064115 | 73 | 110 | 1.0 | 4.0 | 0.00 | 0.00 | 0.00 | 89 | 1010.8 |
| 20260509063612 | 73 | 114 | 1.0 | 4.0 | 0.00 | 0.00 | 0.00 | 89 | 1010.7 |
| 20260509063113 | 73 | 115 | 1.0 | 5.0 | 0.00 | 0.00 | 0.00 | 89 | 1010.8 |
| 20260509062613 | 73 | 109 | 0.0 | 5.0 | 0.00 | 0.00 | 0.00 | 89 | 1010.8 |
| 20260509062111 | 73 | 94 | 0.0 | 4.0 | 0.00 | 0.00 | 0.00 | 88 | 1011.0 |
| 20260509061610 | 73 | 94 | 1.0 | 7.0 | 0.00 | 0.00 | 0.00 | 88 | 1011.0 |
| 20260509061110 | 73 | 71 | 1.0 | 7.0 | 0.00 | 0.00 | 0.00 | 88 | 1010.9 |
| 20260509060611 | 73 | 111 | 0.0 | 2.0 | 0.00 | 0.00 | 0.00 | 88 | 1011.0 |
| 20260509060110 | 73 | 111 | 1.0 | 5.0 | 0.00 | 0.00 | 0.00 | 88 | 1011.0 |
| 20260509055615 | 73 | 105 | 0.0 | 5.0 | 0.00 | 0.00 | 0.00 | 88 | 1011.0 |
| 20260509055611 | 73 | 103 | 1.0 | 5.0 | 0.00 | 0.00 | 0.00 | 88 | 1011.0 |
| 20260509054608 | 73 | 115 | 1.0 | 2.0 | 0.00 | 0.00 | 0.00 | 88 | 1011.0 |
| 20260509054109 | 73 | 115 | 1.0 | 5.0 | 0.00 | 0.00 | 0.00 | 88 | 1011.0 |
| 20260509053612 | 73 | 115 | 1.0 | 5.0 | 0.00 | 0.00 | 0.00 | 88 | 1011.1 |
| 20260509053608 | 73 | 105 | 1.0 | 5.0 | 0.00 | 0.00 | 0.00 | 88 | 1011.0 |
| 20260509052607 | 73 | 100 | 1.0 | 6.0 | 0.00 | 0.00 | 0.00 | 88 | 1011.3 |
| 20260509052113 | 73 | 125 | 1.0 | 5.0 | 0.00 | 0.00 | 0.00 | 87 | 1011.5 |
| 20260509052109 | 73 | 114 | 1.0 | 6.0 | 0.00 | 0.00 | 0.00 | 88 | 1011.6 |
| 20260509051104 | 73 | 128 | 0.0 | 2.0 | 0.00 | 0.00 | 0.00 | 87 | 1011.4 |
| 20260509050603 | 72 | 121 | 0.0 | 5.0 | 0.00 | 0.00 | 0.00 | 87 | 1011.5 |
| 20260509045600 | 72 | 130 | 0.0 | 1.0 | 0.00 | 0.00 | 0.00 | 87 | 1011.5 |
| 20260509045101 | 72 | 130 | 0.0 | 1.0 | 0.00 | 0.00 | 0.00 | 87 | 1011.5 |
| 20260509044558 | 72 | 130 | 0.0 | 2.0 | 0.00 | 0.00 | 0.00 | 87 | 1011.5 |
| 20260509044057 | 72 | 130 | 0.0 | 4.0 | 0.00 | 0.00 | 0.00 | 87 | 1011.3 |
| 20260509043557 | 72 | 123 | 1.0 | 4.0 | 0.00 | 0.00 | 0.00 | 86 | 1011.2 |
| 20260509043057 | 72 | 105 | 1.0 | 4.0 | 0.00 | 0.00 | 0.00 | 86 | 1011.3 |
| 20260509042557 | 72 | 103 | 0.0 | 4.0 | 0.00 | 0.00 | 0.00 | 86 | 1011.2 |
| 20260509042058 | 72 | 103 | 1.0 | 4.0 | 0.00 | 0.00 | 0.00 | 86 | 1011.1 |
| 20260509042054 | 72 | 131 | 1.0 | 4.0 | 0.00 | 0.00 | 0.00 | 86 | 1011.1 |
| 20260509041658 | 72 | 115 | 1.0 | 4.0 | 0.00 | 0.00 | 0.00 | 86 | 1011.1 |
| 20260509040553 | 72 | 90 | 0.0 | 4.0 | 0.00 | 0.00 | 0.00 | 86 | 1011.0 |
| 20260509040050 | 72 | 120 | 0.0 | 4.0 | 0.00 | 0.00 | 0.00 | 86 | 1011.0 |
| 20260509035549 | 72 | 120 | 1.0 | 6.0 | 0.00 | 0.00 | 0.00 | 86 | 1010.9 |
| 20260509035047 | 72 | 128 | 1.0 | 6.0 | 0.00 | 0.00 | 0.00 | 86 | 1010.6 |
| 20260509034547 | 72 | 99 | 1.0 | 4.0 | 0.00 | 0.00 | 0.00 | 85 | 1010.5 |
| 20260509034045 | 72 | 111 | 1.0 | 6.0 | 0.00 | 0.00 | 0.00 | 85 | 1010.3 |
| 20260509033545 | 73 | 84 | 2.0 | 6.0 | 0.00 | 0.00 | 0.00 | 85 | 1010.2 |
| 20260509033045 | 73 | 75 | 2.0 | 7.0 | 0.00 | 0.00 | 0.00 | 85 | 1010.1 |
| 20260509032543 | 73 | 108 | 2.0 | 7.0 | 0.00 | 0.00 | 0.00 | 85 | 1010.0 |
| 20260509032041 | 73 | 126 | 3.0 | 7.0 | 0.00 | 0.00 | 0.00 | 84 | 1010.1 |
| 20260509031538 | 73 | 46 | 3.0 | 7.0 | 0.00 | 0.00 | 0.00 | 84 | 1010.2 |
| 20260509031041 | 73 | 17 | 2.0 | 7.0 | 0.00 | 0.00 | 0.00 | 84 | 1010.1 |
| 20260509031037 | 73 | 57 | 2.0 | 7.0 | 0.00 | 0.00 | 0.00 | 84 | 1010.1 |
| 20260509030035 | 73 | 71 | 2.0 | 7.0 | 0.00 | 0.00 | 0.00 | 83 | 1010.1 |
| 20260509025535 | 73 | 126 | 1.0 | 6.0 | 0.00 | 0.00 | 0.00 | 83 | 1010.1 |
| 20260509025034 | 74 | 113 | 2.0 | 7.0 | 0.00 | 0.00 | 0.00 | 83 | 1010.1 |
| 20260509024535 | 74 | 67 | 2.0 | 7.0 | 0.00 | 0.00 | 0.00 | 82 | 1010.1 |
| 20260509024035 | 74 | 75 | 1.0 | 9.0 | 0.00 | 0.00 | 0.00 | 82 | 1010.0 |
| 20260509023533 | 74 | 96 | 2.0 | 9.0 | 0.00 | 0.00 | 0.00 | 82 | 1009.9 |
| 20260509023033 | 74 | 147 | 2.0 | 7.0 | 0.00 | 0.00 | 0.00 | 81 | 1009.9 |
| 20260509022530 | 74 | 90 | 2.0 | 6.0 | 0.00 | 0.00 | 0.00 | 81 | 1010.0 |
| 20260509022031 | 74 | 67 | 1.0 | 6.0 | 0.00 | 0.00 | 0.00 | 81 | 1010.0 |
| 20260509021535 | 74 | 39 | 1.0 | 6.0 | 0.00 | 0.00 | 0.00 | 81 | 1009.9 |
| 20260509021531 | 74 | 95 | 1.0 | 6.0 | 0.00 | 0.00 | 0.00 | 81 | 1010.0 |
| 20260509020531 | 74 | 28 | 1.0 | 4.0 | 0.00 | 0.00 | 0.00 | 80 | 1009.6 |
| 20260509020527 | 74 | 32 | 1.0 | 4.0 | 0.00 | 0.00 | 0.00 | 80 | 1009.7 |
| 20260509020131 | 74 | 37 | 1.0 | 4.0 | 0.00 | 0.00 | 0.00 | 80 | 1009.5 |
| 20260509015026 | 74 | 37 | 1.0 | 4.0 | 0.00 | 0.00 | 0.00 | 80 | 1009.4 |
| 20260509014527 | 74 | 39 | 1.0 | 5.0 | 0.00 | 0.00 | 0.00 | 79 | 1009.3 |
| 20260509014027 | 75 | 30 | 1.0 | 5.0 | 0.00 | 0.00 | 0.00 | 79 | 1009.1 |
| 20260509013524 | 75 | 105 | 1.0 | 4.0 | 0.00 | 0.00 | 0.00 | 78 | 1009.0 |
| 20260509013025 | 75 | 39 | 1.0 | 4.0 | 0.00 | 0.00 | 0.00 | 78 | 1009.0 |
| 20260509012527 | 76 | 71 | 0.0 | 2.0 | 0.00 | 0.00 | 0.00 | 77 | 1009.1 |
| 20260509012523 | 75 | 59 | 1.0 | 4.0 | 0.00 | 0.00 | 0.00 | 77 | 1009.0 |
| 20260509011527 | 76 | 74 | 1.0 | 5.0 | 0.00 | 0.00 | 0.00 | 77 | 1009.1 |
| 20260509011523 | 76 | 74 | 1.0 | 5.0 | 0.00 | 0.00 | 0.00 | 76 | 1009.1 |
| 20260509010526 | 76 | 94 | 2.0 | 7.0 | 0.00 | 0.00 | 0.00 | 76 | 1009.0 |
| 20260509010522 | 76 | 95 | 1.0 | 7.0 | 0.00 | 0.00 | 0.00 | 76 | 1009.1 |
| 20260509005525 | 77 | 130 | 2.0 | 6.0 | 0.00 | 0.00 | 0.00 | 75 | 1008.9 |
| 20260509005521 | 77 | 98 | 2.0 | 5.0 | 0.00 | 0.00 | 0.00 | 76 | 1009.0 |
| 20260509004525 | 77 | 19 | 2.0 | 7.0 | 0.00 | 0.00 | 0.00 | 75 | 1009.0 |
| 20260509004521 | 77 | 78 | 3.0 | 7.0 | 0.00 | 0.00 | 0.00 | 75 | 1008.9 |
| 20260509003520 | 77 | 9 | 2.0 | 7.0 | 0.00 | 0.00 | 0.00 | 74 | 1008.9 |
| 20260509003021 | 77 | 21 | 3.0 | 7.0 | 0.00 | 0.00 | 0.00 | 74 | 1008.9 |
| 20260509002521 | 78 | 31 | 2.0 | 7.0 | 0.00 | 0.00 | 0.00 | 73 | 1008.8 |
| 20260509002024 | 79 | 80 | 2.0 | 6.0 | 0.00 | 0.00 | 0.00 | 72 | 1008.8 |
| 20260509002020 | 78 | 16 | 2.0 | 6.0 | 0.00 | 0.00 | 0.00 | 72 | 1008.8 |
| 20260509001025 | 78 | 21 | 2.0 | 5.0 | 0.00 | 0.00 | 0.00 | 73 | 1009.0 |
| 20260509001021 | 78 | 77 | 2.0 | 6.0 | 0.00 | 0.00 | 0.00 | 73 | 1008.9 |
| 20260509000021 | 78 | 43 | 3.0 | 8.0 | 0.00 | 0.00 | 0.00 | 73 | 1009.1 |
| 20260508235519 | 78 | 51 | 3.0 | 8.0 | 0.00 | 0.00 | 0.00 | 72 | 1009.0 |
| 20260508235019 | 79 | 73 | 1.0 | 7.0 | 0.00 | 0.00 | 0.00 | 70 | 1009.2 |
| 20260508234517 | 80 | 51 | 1.0 | 5.0 | 0.00 | 0.00 | 0.00 | 71 | 1009.1 |
| 20260508234017 | 79 | 51 | 2.0 | 6.0 | 0.00 | 0.00 | 0.00 | 71 | 1009.0 |
| 20260508233516 | 79 | 96 | 2.0 | 6.0 | 0.00 | 0.00 | 0.00 | 72 | 1009.0 |
| 20260508233016 | 79 | 114 | 1.0 | 4.0 | 0.00 | 0.00 | 0.00 | 72 | 1009.0 |
| 20260508232517 | 79 | 101 | 2.0 | 5.0 | 0.00 | 0.00 | 0.00 | 72 | 1009.0 |
| 20260508232021 | 81 | 140 | 2.0 | 8.0 | 0.00 | 0.00 | 0.00 | 68 | 1009.1 |
| 20260508232017 | 80 | 9 | 2.0 | 8.0 | 0.00 | 0.00 | 0.00 | 70 | 1009.1 |
| 20260508231016 | 81 | 103 | 2.0 | 7.0 | 0.00 | 0.00 | 0.00 | 68 | 1009.1 |
| 20260508230517 | 80 | 131 | 1.0 | 6.0 | 0.00 | 0.00 | 0.00 | 70 | 1009.0 |
| 20260508230017 | 79 | 145 | 2.0 | 5.0 | 0.00 | 0.00 | 0.00 | 71 | 1009.0 |
| 20260508225514 | 79 | 115 | 2.0 | 6.0 | 0.00 | 0.00 | 0.00 | 73 | 1009.1 |
| 20260508225019 | 78 | 139 | 2.0 | 7.0 | 0.00 | 0.00 | 0.00 | 72 | 1009.1 |
| 20260508225015 | 79 | 47 | 1.0 | 7.0 | 0.00 | 0.00 | 0.00 | 72 | 1009.1 |
| 20260508224014 | 79 | 123 | 2.0 | 6.0 | 0.00 | 0.00 | 0.00 | 72 | 1009.2 |
| 20260508223517 | 79 | 107 | 2.0 | 8.0 | 0.00 | 0.00 | 0.00 | 71 | 1009.2 |
| 20260508223513 | 79 | 98 | 2.0 | 8.0 | 0.00 | 0.00 | 0.00 | 71 | 1009.1 |
| 20260508223117 | 80 | 65 | 2.0 | 5.0 | 0.00 | 0.00 | 0.00 | 71 | 1009.3 |
| 20260508222013 | 79 | 96 | 2.0 | 5.0 | 0.00 | 0.00 | 0.00 | 73 | 1009.4 |
| 20260508221513 | 78 | 141 | 2.0 | 6.0 | 0.00 | 0.00 | 0.00 | 72 | 1009.5 |
| 20260508221012 | 78 | 97 | 2.0 | 6.0 | 0.00 | 0.00 | 0.00 | 72 | 1009.4 |
| 20260508220513 | 78 | 113 | 3.0 | 7.0 | 0.00 | 0.00 | 0.00 | 73 | 1009.4 |
| 20260508220013 | 78 | 25 | 3.0 | 8.0 | 0.00 | 0.00 | 0.00 | 73 | 1009.5 |
| 20260508215513 | 78 | 69 | 3.0 | 8.0 | 0.00 | 0.00 | 0.00 | 73 | 1009.5 |
| 20260508215013 | 78 | 53 | 2.0 | 7.0 | 0.00 | 0.00 | 0.00 | 72 | 1009.6 |
| 20260508214515 | 78 | 40 | 1.0 | 6.0 | 0.00 | 0.00 | 0.00 | 72 | 1009.6 |
| 20260508214511 | 78 | 86 | 2.0 | 8.0 | 0.00 | 0.00 | 0.00 | 73 | 1009.7 |
| 20260508213511 | 78 | 107 | 3.0 | 9.0 | 0.00 | 0.00 | 0.00 | 72 | 1009.8 |
| 20260508213011 | 78 | 57 | 3.0 | 10.0 | 0.00 | 0.00 | 0.00 | 71 | 1009.7 |
| 20260508212511 | 78 | 94 | 3.0 | 10.0 | 0.00 | 0.00 | 0.00 | 72 | 1009.7 |
| 20260508212011 | 78 | 131 | 3.0 | 9.0 | 0.00 | 0.00 | 0.00 | 73 | 1009.8 |
| 20260508211511 | 78 | 71 | 3.0 | 7.0 | 0.00 | 0.00 | 0.00 | 72 | 1009.9 |
| 20260508211011 | 77 | 120 | 2.0 | 7.0 | 0.00 | 0.00 | 0.00 | 73 | 1010.0 |
| 20260508210511 | 77 | 58 | 2.0 | 9.0 | 0.00 | 0.00 | 0.00 | 73 | 1010.1 |
| 20260508210011 | 77 | 93 | 2.0 | 9.0 | 0.00 | 0.00 | 0.00 | 73 | 1010.2 |
| 20260508205514 | 77 | 96 | 2.0 | 7.0 | 0.00 | 0.00 | 0.00 | 73 | 1010.4 |
| 20260508205510 | 77 | 115 | 2.0 | 8.0 | 0.00 | 0.00 | 0.00 | 73 | 1010.3 |
| 20260508204508 | 77 | 130 | 2.0 | 7.0 | 0.00 | 0.00 | 0.00 | 72 | 1010.5 |
| 20260508204007 | 78 | 118 | 2.0 | 6.0 | 0.00 | 0.00 | 0.00 | 72 | 1010.6 |
| 20260508203507 | 78 | 101 | 1.0 | 6.0 | 0.00 | 0.00 | 0.00 | 72 | 1010.6 |
| 20260508203006 | 78 | 117 | 2.0 | 7.0 | 0.00 | 0.00 | 0.00 | 71 | 1010.6 |
| 20260508202507 | 78 | 110 | 2.0 | 7.0 | 0.00 | 0.00 | 0.00 | 70 | 1010.6 |
| 20260508202007 | 79 | 98 | 2.0 | 6.0 | 0.00 | 0.00 | 0.00 | 70 | 1010.6 |
| 20260508201507 | 79 | 141 | 1.0 | 5.0 | 0.00 | 0.00 | 0.00 | 69 | 1010.6 |
| 20260508201007 | 80 | 82 | 2.0 | 7.0 | 0.00 | 0.00 | 0.00 | 69 | 1010.6 |
| 20260508200507 | 79 | 94 | 2.0 | 7.0 | 0.00 | 0.00 | 0.00 | 70 | 1010.5 |
| 20260508200007 | 79 | 128 | 2.0 | 6.0 | 0.00 | 0.00 | 0.00 | 70 | 1010.5 |
| 20260508195511 | 79 | 97 | 1.0 | 6.0 | 0.00 | 0.00 | 0.00 | 70 | 1010.6 |
| 20260508195507 | 79 | 111 | 2.0 | 6.0 | 0.00 | 0.00 | 0.00 | 71 | 1010.5 |
| 20260508194505 | 79 | 136 | 2.0 | 7.0 | 0.00 | 0.00 | 0.00 | 71 | 1010.6 |
| 20260508194005 | 78 | 132 | 2.0 | 8.0 | 0.00 | 0.00 | 0.00 | 71 | 1010.7 |
| 20260508193509 | 79 | 61 | 2.0 | 10.0 | 0.00 | 0.00 | 0.00 | 70 | 1010.7 |
| 20260508193505 | 79 | 111 | 2.0 | 10.0 | 0.00 | 0.00 | 0.00 | 69 | 1010.7 |
| 20260508192505 | 79 | 103 | 2.0 | 8.0 | 0.00 | 0.00 | 0.00 | 70 | 1010.8 |
| 20260508192009 | 80 | 123 | 3.0 | 7.0 | 0.00 | 0.00 | 0.00 | 68 | 1010.8 |
| 20260508192005 | 79 | 74 | 3.0 | 8.0 | 0.00 | 0.00 | 0.00 | 69 | 1010.9 |
| 20260508191005 | 80 | 119 | 2.0 | 7.0 | 0.00 | 0.00 | 0.00 | 69 | 1010.9 |
| 20260508190505 | 80 | 119 | 2.0 | 9.0 | 0.00 | 0.00 | 0.00 | 69 | 1010.8 |
| 20260508190501 | 79 | 101 | 3.0 | 9.0 | 0.00 | 0.00 | 0.00 | 71 | 1011.0 |
| 20260508190104 | 80 | 226 | 3.0 | 9.0 | 0.00 | 0.00 | 0.00 | 70 | 1011.0 |
| 20260508184959 | 78 | 66 | 3.0 | 9.0 | 0.00 | 0.00 | 0.00 | 71 | 1011.1 |
| 20260508184457 | 79 | 36 | 2.0 | 9.0 | 0.00 | 0.00 | 0.00 | 69 | 1011.2 |
| 20260508183957 | 79 | 65 | 2.0 | 9.0 | 0.00 | 0.00 | 0.00 | 69 | 1011.2 |
| 20260508183457 | 79 | 119 | 2.0 | 5.0 | 0.00 | 0.00 | 0.00 | 70 | 1011.2 |
| 20260508182957 | 79 | 98 | 2.0 | 7.0 | 0.00 | 0.00 | 0.00 | 70 | 1011.3 |
| 20260508182457 | 78 | 113 | 2.0 | 8.0 | 0.00 | 0.00 | 0.00 | 70 | 1011.4 |
| 20260508181957 | 78 | 81 | 2.0 | 8.0 | 0.00 | 0.00 | 0.00 | 70 | 1011.4 |
| 20260508181458 | 78 | 37 | 1.0 | 7.0 | 0.00 | 0.00 | 0.00 | 71 | 1011.5 |
| 20260508180959 | 77 | 122 | 2.0 | 8.0 | 0.00 | 0.00 | 0.00 | 73 | 1011.6 |
| 20260508180955 | 76 | 152 | 2.0 | 8.0 | 0.00 | 0.00 | 0.00 | 73 | 1011.8 |
| 20260508180559 | 76 | 123 | 2.0 | 7.0 | 0.00 | 0.00 | 0.00 | 74 | 1011.7 |
| 20260508180059 | 75 | 68 | 2.0 | 7.0 | 0.00 | 0.00 | 0.00 | 74 | 1011.8 |
| 20260508174955 | 74 | 113 | 1.0 | 5.0 | 0.00 | 0.00 | 0.00 | 76 | 1012.1 |
| 20260508174455 | 73 | 86 | 1.0 | 5.0 | 0.00 | 0.00 | 0.00 | 76 | 1012.3 |
| 20260508173955 | 73 | 110 | 1.0 | 6.0 | 0.00 | 0.00 | 0.00 | 77 | 1012.3 |
| 20260508173455 | 72 | 67 | 2.0 | 6.0 | 0.00 | 0.00 | 0.00 | 78 | 1012.4 |
| 20260508172955 | 71 | 101 | 1.0 | 6.0 | 0.00 | 0.00 | 0.00 | 78 | 1012.5 |
| 20260508172455 | 71 | 67 | 0.0 | 5.0 | 0.00 | 0.00 | 0.00 | 78 | 1012.6 |
| 20260508171954 | 70 | 164 | 0.0 | 2.0 | 0.00 | 0.00 | 0.00 | 79 | 1012.6 |
| 20260508171453 | 70 | 88 | 0.0 | 1.0 | 0.00 | 0.00 | 0.00 | 79 | 1012.7 |
| 20260508170951 | 70 | 88 | 0.0 | 2.0 | 0.00 | 0.00 | 0.00 | 80 | 1012.8 |
| 20260508170452 | 70 | 84 | 0.0 | 2.0 | 0.00 | 0.00 | 0.00 | 80 | 1012.9 |
| 20260508165951 | 69 | 84 | 1.0 | 2.0 | 0.00 | 0.00 | 0.00 | 81 | 1012.8 |
| 20260508165451 | 69 | 40 | 0.0 | 2.0 | 0.00 | 0.00 | 0.00 | 81 | 1012.9 |
| 20260508164952 | 69 | 350 | 0.0 | 0.0 | 0.00 | 0.00 | 0.00 | 81 | 1013.0 |
| 20260508164451 | 68 | 350 | 0.0 | 2.0 | 0.00 | 0.00 | 0.00 | 81 | 1013.0 |
| 20260508163951 | 68 | 350 | 0.0 | 2.0 | 0.00 | 0.00 | 0.00 | 81 | 1013.1 |
| 20260508163449 | 68 | 243 | 1.0 | 6.0 | 0.00 | 0.00 | 0.00 | 81 | 1013.1 |
| 20260508162949 | 68 | 329 | 1.0 | 6.0 | 0.00 | 0.00 | 0.00 | 81 | 1013.1 |
| 20260508162447 | 67 | 326 | 1.0 | 5.0 | 0.00 | 0.00 | 0.00 | 82 | 1013.0 |
| 20260508161947 | 67 | 24 | 2.0 | 6.0 | 0.00 | 0.00 | 0.00 | 82 | 1013.0 |
| 20260508161450 | 67 | 343 | 2.0 | 6.0 | 0.00 | 0.00 | 0.00 | 82 | 1013.1 |
| 20260508161446 | 67 | 342 | 1.0 | 6.0 | 0.00 | 0.00 | 0.00 | 82 | 1013.0 |
| 20260508161049 | 66 | 10 | 2.0 | 6.0 | 0.00 | 0.00 | 0.00 | 83 | 1013.2 |
| 20260508160442 | 66 | 355 | 2.0 | 6.0 | 0.00 | 0.00 | 0.00 | 83 | 1013.1 |
| 20260508155442 | 66 | 40 | 2.0 | 5.0 | 0.00 | 0.00 | 0.00 | 83 | 1013.2 |
| 20260508154941 | 66 | 50 | 3.0 | 6.0 | 0.00 | 0.00 | 0.00 | 83 | 1013.3 |
| 20260508154442 | 65 | 327 | 3.0 | 6.0 | 0.00 | 0.00 | 0.00 | 83 | 1013.4 |
| 20260508153945 | 65 | 342 | 2.0 | 5.0 | 0.00 | 0.00 | 0.00 | 84 | 1013.6 |
| 20260508153941 | 65 | 33 | 3.0 | 6.0 | 0.00 | 0.00 | 0.00 | 84 | 1013.5 |
| 20260508152941 | 65 | 348 | 2.0 | 5.0 | 0.00 | 0.00 | 0.00 | 84 | 1013.5 |
| 20260508152442 | 65 | 15 | 2.0 | 5.0 | 0.00 | 0.00 | 0.00 | 84 | 1013.8 |
| 20260508151940 | 65 | 346 | 1.0 | 5.0 | 0.00 | 0.00 | 0.00 | 84 | 1013.8 |
| 20260508151439 | 65 | 39 | 1.0 | 5.0 | 0.00 | 0.00 | 0.00 | 84 | 1014.0 |
| 20260508150940 | 65 | 13 | 2.0 | 6.0 | 0.00 | 0.00 | 0.00 | 84 | 1014.0 |
| 20260508150439 | 65 | 28 | 3.0 | 6.0 | 0.00 | 0.00 | 0.00 | 84 | 1013.9 |
| 20260508145939 | 65 | 338 | 2.0 | 6.0 | 0.00 | 0.00 | 0.00 | 84 | 1013.9 |
| 20260508145439 | 65 | 355 | 1.0 | 4.0 | 0.00 | 0.00 | 0.00 | 84 | 1014.1 |
| 20260508144937 | 65 | 13 | 2.0 | 6.0 | 0.00 | 0.00 | 0.00 | 83 | 1014.1 |
| 20260508144437 | 65 | 12 | 3.0 | 6.0 | 0.00 | 0.00 | 0.00 | 84 | 1014.0 |
| 20260508143938 | 64 | 82 | 2.0 | 6.0 | 0.00 | 0.00 | 0.00 | 84 | 1013.9 |
| 20260508143436 | 64 | 54 | 2.0 | 8.0 | 0.00 | 0.00 | 0.00 | 84 | 1013.8 |
| 20260508142939 | 64 | 329 | 1.0 | 5.0 | 0.00 | 0.00 | 0.00 | 84 | 1013.8 |
| 20260508142935 | 64 | 321 | 2.0 | 8.0 | 0.00 | 0.00 | 0.00 | 84 | 1013.8 |
| 20260508141935 | 64 | 26 | 1.0 | 5.0 | 0.00 | 0.00 | 0.00 | 84 | 1014.0 |
| 20260508141435 | 63 | 28 | 1.0 | 5.0 | 0.00 | 0.00 | 0.00 | 84 | 1014.1 |
| 20260508140936 | 63 | 40 | 1.0 | 5.0 | 0.00 | 0.00 | 0.00 | 84 | 1014.0 |